| time (UTC) | temp F | wind direction | speed MPH | gust MPH | rain 1hr in | rain 24hr in | rain mn in | humidity % | barometer mb |
| 20260831073020 | 84 | 211 | 1.0 | 1.0 | 0.00 | 0.00 | 0.00 | 88 | 1010.0 |
| 20260831072515 | 84 | 215 | 0.0 | 0.0 | 0.00 | 0.00 | 0.00 | 88 | 1010.0 |
| 20260831072012 | 84 | 196 | 1.0 | 2.0 | 0.00 | 0.00 | 0.00 | 88 | 1010.0 |
| 20260831071510 | 84 | 180 | 0.0 | 0.0 | 0.00 | 0.00 | 0.00 | 89 | 1009.9 |
| 20260831071006 | 84 | 206 | 0.0 | 0.0 | 0.00 | 0.00 | 0.00 | 89 | 1010.0 |
| 20260831070504 | 84 | 197 | 0.0 | 1.0 | 0.00 | 0.00 | 0.00 | 89 | 1009.9 |
| 20260831065959 | 84 | 176 | 3.0 | 3.0 | 0.00 | 0.00 | 0.00 | 89 | 1009.9 |
| 20260831065457 | 84 | 128 | 4.0 | 7.0 | 0.00 | 0.00 | 0.00 | 89 | 1009.9 |
| 20260831064952 | 84 | 161 | 3.0 | 7.0 | 0.00 | 0.00 | 0.00 | 88 | 1010.2 |
| 20260831064447 | 84 | 184 | 3.0 | 3.0 | 0.00 | 0.00 | 0.00 | 89 | 1010.2 |
| 20260831063942 | 84 | 193 | 2.0 | 2.0 | 0.00 | 0.00 | 0.00 | 89 | 1010.1 |
| 20260831063437 | 84 | 220 | 0.0 | 0.0 | 0.00 | 0.00 | 0.00 | 89 | 1010.1 |
| 20260831062931 | 84 | 216 | 0.0 | 1.0 | 0.00 | 0.00 | 0.00 | 89 | 1010.1 |
| 20260831062429 | 84 | 218 | 1.0 | 1.0 | 0.00 | 0.00 | 0.00 | 90 | 1010.0 |
| 20260831061926 | 84 | 211 | 1.0 | 1.0 | 0.00 | 0.00 | 0.00 | 90 | 1010.0 |
| 20260831061425 | 84 | 190 | 2.0 | 3.0 | 0.00 | 0.00 | 0.00 | 90 | 1009.9 |
| 20260831060921 | 84 | 184 | 1.0 | 2.0 | 0.00 | 0.00 | 0.00 | 89 | 1009.9 |
| 20260831060416 | 84 | 218 | 0.0 | 0.0 | 0.00 | 0.00 | 0.00 | 89 | 1009.9 |
| 20260831055915 | 84 | 167 | 3.0 | 4.0 | 0.00 | 0.00 | 0.00 | 88 | 1009.9 |
| 20260831055410 | 84 | 202 | 0.0 | 0.0 | 0.00 | 0.00 | 0.00 | 88 | 1009.8 |
| 20260831054906 | 84 | 211 | 0.0 | 0.0 | 0.00 | 0.00 | 0.00 | 88 | 1010.1 |
| 20260831054401 | 84 | 210 | 0.0 | 0.0 | 0.00 | 0.00 | 0.00 | 88 | 1010.0 |
| 20260831053900 | 84 | 194 | 0.0 | 0.0 | 0.00 | 0.00 | 0.00 | 88 | 1009.8 |
| 20260831053358 | 84 | 221 | 1.0 | 1.0 | 0.00 | 0.00 | 0.00 | 88 | 1009.8 |
| 20260831052853 | 84 | 215 | 2.0 | 3.0 | 0.00 | 0.00 | 0.00 | 89 | 1010.0 |
| 20260831052352 | 84 | 202 | 1.0 | 1.0 | 0.00 | 0.00 | 0.00 | 89 | 1009.7 |
| 20260831051850 | 84 | 200 | 0.0 | 0.0 | 0.00 | 0.00 | 0.00 | 89 | 1010.2 |
| 20260831051348 | 84 | 191 | 1.0 | 1.0 | 0.00 | 0.00 | 0.00 | 88 | 1009.8 |
| 20260831050844 | 84 | 225 | 0.0 | 0.0 | 0.00 | 0.00 | 0.00 | 88 | 1009.7 |
| 20260831050337 | 84 | 210 | 0.0 | 0.0 | 0.00 | 0.00 | 0.00 | 88 | 1010.0 |
| 20260831045831 | 84 | 212 | 0.0 | 0.0 | 0.00 | 0.00 | 0.00 | 88 | 1009.7 |
| 20260831045326 | 85 | 216 | 1.0 | 2.0 | 0.00 | 0.00 | 0.00 | 88 | 1010.0 |
| 20260831044821 | 85 | 194 | 1.0 | 2.0 | 0.00 | 0.00 | 0.00 | 88 | 1010.1 |
| 20260831044316 | 85 | 211 | 2.0 | 2.0 | 0.00 | 0.00 | 0.00 | 88 | 1009.9 |
| 20260831043813 | 85 | 201 | 2.0 | 3.0 | 0.00 | 0.00 | 0.00 | 88 | 1009.9 |
| 20260831043311 | 85 | 201 | 0.0 | 0.0 | 0.00 | 0.00 | 0.00 | 88 | 1009.8 |
| 20260831042807 | 85 | 227 | 0.0 | 0.0 | 0.00 | 0.00 | 0.00 | 87 | 1009.9 |
| 20260831042307 | 85 | 214 | 0.0 | 0.0 | 0.00 | 0.00 | 0.00 | 87 | 1009.9 |
| 20260831041802 | 85 | 217 | 0.0 | 0.0 | 0.00 | 0.00 | 0.00 | 87 | 1010.0 |
| 20260831041301 | 85 | 214 | 0.0 | 0.0 | 0.00 | 0.00 | 0.00 | 86 | 1009.7 |
| 20260831040756 | 85 | 205 | 1.0 | 2.0 | 0.00 | 0.00 | 0.00 | 86 | 1009.6 |
| 20260831040255 | 85 | 221 | 0.0 | 0.0 | 0.00 | 0.00 | 0.00 | 86 | 1009.7 |
| 20260831035753 | 85 | 217 | 2.0 | 2.0 | 0.00 | 0.00 | 0.00 | 86 | 1009.8 |
| 20260831035252 | 85 | 220 | 0.0 | 0.0 | 0.00 | 0.00 | 0.00 | 85 | 1009.5 |
| 20260831034747 | 85 | 199 | 0.0 | 1.0 | 0.00 | 0.00 | 0.00 | 85 | 1009.5 |
| 20260831034242 | 85 | 218 | 0.0 | 1.0 | 0.00 | 0.00 | 0.00 | 85 | 1009.4 |
| 20260831033738 | 85 | 202 | 0.0 | 0.0 | 0.00 | 0.00 | 0.00 | 85 | 1009.4 |
| 20260831033237 | 85 | 220 | 2.0 | 2.0 | 0.00 | 0.00 | 0.00 | 85 | 1009.5 |
| 20260831032733 | 85 | 221 | 1.0 | 1.0 | 0.00 | 0.00 | 0.00 | 85 | 1009.4 |
| 20260831032227 | 85 | 190 | 3.0 | 4.0 | 0.00 | 0.00 | 0.00 | 85 | 1009.3 |
| 20260831031722 | 85 | 217 | 0.0 | 1.0 | 0.00 | 0.00 | 0.00 | 85 | 1009.3 |
| 20260831031217 | 85 | 200 | 1.0 | 2.0 | 0.00 | 0.00 | 0.00 | 85 | 1009.1 |
| 20260831030716 | 85 | 190 | 3.0 | 4.0 | 0.00 | 0.00 | 0.00 | 85 | 1009.3 |
| 20260831030215 | 85 | 195 | 0.0 | 0.0 | 0.00 | 0.00 | 0.00 | 85 | 1009.0 |
| 20260831025714 | 85 | 230 | 1.0 | 2.0 | 0.00 | 0.00 | 0.00 | 85 | 1009.1 |
| 20260831025209 | 85 | 211 | 2.0 | 2.0 | 0.00 | 0.00 | 0.00 | 85 | 1009.1 |
| 20260831024705 | 85 | 211 | 0.0 | 1.0 | 0.00 | 0.00 | 0.00 | 86 | 1008.9 |
| 20260831024204 | 85 | 214 | 0.0 | 0.0 | 0.00 | 0.00 | 0.00 | 86 | 1009.0 |
| 20260831023702 | 85 | 202 | 2.0 | 4.0 | 0.00 | 0.00 | 0.00 | 86 | 1008.9 |
| 20260831023201 | 85 | 198 | 0.0 | 0.0 | 0.00 | 0.00 | 0.00 | 86 | 1008.9 |
| 20260831022656 | 85 | 214 | 0.0 | 0.0 | 0.00 | 0.00 | 0.00 | 85 | 1009.0 |
| 20260831022151 | 86 | 221 | 0.0 | 1.0 | 0.00 | 0.00 | 0.00 | 85 | 1008.9 |
| 20260831021650 | 86 | 227 | 0.0 | 1.0 | 0.00 | 0.00 | 0.00 | 85 | 1009.0 |
| 20260831021146 | 86 | 277 | 1.0 | 2.0 | 0.00 | 0.00 | 0.00 | 85 | 1008.7 |
| 20260831020642 | 86 | 166 | 3.0 | 3.0 | 0.00 | 0.00 | 0.00 | 85 | 1008.9 |
| 20260831020141 | 86 | 204 | 2.0 | 2.0 | 0.00 | 0.00 | 0.00 | 85 | 1008.6 |
| 20260831015637 | 86 | 202 | 0.0 | 1.0 | 0.00 | 0.00 | 0.00 | 84 | 1008.6 |
| 20260831015137 | 86 | 208 | 1.0 | 1.0 | 0.00 | 0.00 | 0.00 | 84 | 1008.8 |
| 20260831014632 | 86 | 175 | 1.0 | 2.0 | 0.00 | 0.00 | 0.00 | 84 | 1008.7 |
| 20260831014127 | 86 | 207 | 1.0 | 1.0 | 0.00 | 0.00 | 0.00 | 84 | 1008.4 |
| 20260831013624 | 86 | 193 | 2.0 | 2.0 | 0.00 | 0.00 | 0.00 | 84 | 1008.6 |
| 20260831013123 | 86 | 218 | 2.0 | 3.0 | 0.00 | 0.00 | 0.00 | 84 | 1008.3 |
| 20260831012618 | 86 | 199 | 1.0 | 2.0 | 0.00 | 0.00 | 0.00 | 84 | 1008.4 |
| 20260831012113 | 86 | 215 | 2.0 | 2.0 | 0.00 | 0.00 | 0.00 | 84 | 1008.2 |
| 20260831011613 | 86 | 201 | 2.0 | 2.0 | 0.00 | 0.00 | 0.00 | 85 | 1008.3 |
| 20260831011108 | 86 | 195 | 3.0 | 3.0 | 0.00 | 0.00 | 0.00 | 85 | 1008.3 |
| 20260831010604 | 86 | 190 | 0.0 | 1.0 | 0.00 | 0.00 | 0.00 | 84 | 1008.3 |
| 20260831010059 | 86 | 202 | 2.0 | 2.0 | 0.00 | 0.00 | 0.00 | 83 | 1008.2 |
| 20260831005559 | 86 | 223 | 3.0 | 6.0 | 0.00 | 0.00 | 0.00 | 83 | 1008.1 |
| 20260831005054 | 86 | 260 | 1.0 | 2.0 | 0.00 | 0.00 | 0.00 | 83 | 1008.1 |
| 20260831004550 | 86 | 108 | 4.0 | 6.0 | 0.00 | 0.00 | 0.00 | 82 | 1008.1 |
| 20260831004046 | 87 | 216 | 2.0 | 2.0 | 0.00 | 0.00 | 0.00 | 81 | 1007.8 |
| 20260831003542 | 87 | 218 | 1.0 | 2.0 | 0.00 | 0.00 | 0.00 | 81 | 1007.7 |
| 20260831003037 | 87 | 213 | 1.0 | 1.0 | 0.00 | 0.00 | 0.00 | 81 | 1007.8 |
| 20260831002536 | 87 | 218 | 1.0 | 1.0 | 0.00 | 0.00 | 0.00 | 79 | 1007.8 |
| 20260831002031 | 87 | 236 | 0.0 | 1.0 | 0.00 | 0.00 | 0.00 | 79 | 1007.7 |
| 20260831001527 | 87 | 164 | 1.0 | 1.0 | 0.00 | 0.00 | 0.00 | 79 | 1007.6 |
| 20260831001023 | 88 | 224 | 1.0 | 2.0 | 0.00 | 0.00 | 0.00 | 79 | 1007.5 |
| 20260831000519 | 88 | 51 | 2.0 | 4.0 | 0.00 | 0.00 | 0.00 | 78 | 1007.6 |
| 20260831000018 | 88 | 201 | 3.0 | 6.0 | 0.00 | 0.00 | 0.00 | 77 | 1008.0 |
| 20260830235512 | 88 | 234 | 3.0 | 4.0 | 0.00 | 0.00 | 0.00 | 77 | 1007.9 |
| 20260830235007 | 89 | 133 | 3.0 | 8.0 | 0.00 | 0.00 | 0.00 | 76 | 1007.9 |
| 20260830234502 | 89 | 184 | 4.0 | 7.0 | 0.00 | 0.00 | 0.00 | 75 | 1007.9 |
| 20260830233958 | 89 | 186 | 3.0 | 6.0 | 0.00 | 0.00 | 0.00 | 75 | 1008.0 |
| 20260830233453 | 89 | 220 | 2.0 | 3.0 | 0.00 | 0.00 | 0.00 | 75 | 1008.0 |
| 20260830232949 | 89 | 214 | 0.0 | 1.0 | 0.00 | 0.00 | 0.00 | 75 | 1007.9 |
| 20260830232444 | 89 | 189 | 3.0 | 6.0 | 0.00 | 0.00 | 0.00 | 75 | 1007.9 |
| 20260830231941 | 90 | 201 | 2.0 | 3.0 | 0.00 | 0.00 | 0.00 | 73 | 1007.7 |
| 20260830231435 | 90 | 211 | 4.0 | 7.0 | 0.00 | 0.00 | 0.00 | 73 | 1007.8 |
| 20260830230929 | 90 | 217 | 1.0 | 2.0 | 0.00 | 0.00 | 0.00 | 71 | 1007.7 |
| 20260830230425 | 90 | 207 | 3.0 | 6.0 | 0.00 | 0.00 | 0.00 | 72 | 1007.8 |
| 20260830225924 | 90 | 221 | 2.0 | 2.0 | 0.00 | 0.00 | 0.00 | 71 | 1007.7 |
| 20260830225420 | 90 | 220 | 1.0 | 1.0 | 0.00 | 0.00 | 0.00 | 72 | 1007.8 |
| 20260830224914 | 90 | 214 | 2.0 | 6.0 | 0.00 | 0.00 | 0.00 | 73 | 1007.9 |
| 20260830224413 | 91 | 216 | 1.0 | 1.0 | 0.00 | 0.00 | 0.00 | 72 | 1007.8 |
| 20260830223910 | 91 | 214 | 2.0 | 2.0 | 0.00 | 0.00 | 0.00 | 72 | 1007.9 |
| 20260830223406 | 91 | 356 | 2.0 | 4.0 | 0.00 | 0.00 | 0.00 | 70 | 1007.8 |
| 20260830222905 | 91 | 299 | 3.0 | 4.0 | 0.00 | 0.00 | 0.00 | 70 | 1008.0 |
| 20260830222401 | 91 | 219 | 1.0 | 1.0 | 0.00 | 0.00 | 0.00 | 71 | 1007.8 |
| 20260830221856 | 91 | 195 | 2.0 | 6.0 | 0.00 | 0.00 | 0.00 | 70 | 1007.9 |
| 20260830221352 | 92 | 297 | 2.0 | 2.0 | 0.00 | 0.00 | 0.00 | 68 | 1007.7 |
| 20260830220848 | 93 | 245 | 2.0 | 3.0 | 0.00 | 0.00 | 0.00 | 66 | 1008.0 |
| 20260830220347 | 92 | 258 | 1.0 | 2.0 | 0.00 | 0.00 | 0.00 | 63 | 1007.7 |
| 20260830215845 | 93 | 100 | 2.0 | 3.0 | 0.00 | 0.00 | 0.00 | 64 | 1007.8 |
| 20260830215344 | 93 | 209 | 2.0 | 2.0 | 0.00 | 0.00 | 0.00 | 65 | 1007.8 |
| 20260830214840 | 94 | 286 | 2.0 | 3.0 | 0.00 | 0.00 | 0.00 | 63 | 1007.9 |
| 20260830214335 | 93 | 205 | 2.0 | 3.0 | 0.00 | 0.00 | 0.00 | 64 | 1007.9 |
| 20260830213835 | 93 | 205 | 3.0 | 4.0 | 0.00 | 0.00 | 0.00 | 61 | 1007.9 |
| 20260830213330 | 94 | 214 | 2.0 | 3.0 | 0.00 | 0.00 | 0.00 | 63 | 1007.8 |
| 20260830212826 | 93 | 348 | 4.0 | 7.0 | 0.00 | 0.00 | 0.00 | 66 | 1008.2 |
| 20260830212321 | 93 | 226 | 3.0 | 3.0 | 0.00 | 0.00 | 0.00 | 67 | 1007.9 |
| 20260830211820 | 94 | 220 | 2.0 | 4.0 | 0.00 | 0.00 | 0.00 | 65 | 1008.1 |
| 20260830211315 | 94 | 348 | 7.0 | 9.0 | 0.00 | 0.00 | 0.00 | 65 | 1008.3 |
| 20260830210811 | 94 | 353 | 3.0 | 4.0 | 0.00 | 0.00 | 0.00 | 65 | 1008.4 |
| 20260830210309 | 95 | 229 | 2.0 | 4.0 | 0.00 | 0.00 | 0.00 | 64 | 1008.4 |
| 20260830205808 | 95 | 244 | 3.0 | 3.0 | 0.00 | 0.00 | 0.00 | 63 | 1008.6 |
| 20260830205305 | 96 | 250 | 3.0 | 3.0 | 0.00 | 0.00 | 0.00 | 64 | 1008.7 |
| 20260830204758 | 95 | 14 | 4.0 | 6.0 | 0.00 | 0.00 | 0.00 | 64 | 1008.7 |
| 20260830204256 | 95 | 233 | 1.0 | 1.0 | 0.00 | 0.00 | 0.00 | 65 | 1008.6 |
| 20260830203752 | 95 | 215 | 4.0 | 4.0 | 0.00 | 0.00 | 0.00 | 64 | 1009.1 |
| 20260830203248 | 94 | 234 | 4.0 | 6.0 | 0.00 | 0.00 | 0.00 | 66 | 1009.1 |
| 20260830202748 | 95 | 246 | 3.0 | 6.0 | 0.00 | 0.00 | 0.00 | 65 | 1009.2 |
| 20260830202243 | 96 | 218 | 1.0 | 2.0 | 0.00 | 0.00 | 0.00 | 63 | 1009.4 |
| 20260830201742 | 95 | 52 | 3.0 | 4.0 | 0.00 | 0.00 | 0.00 | 65 | 1009.3 |
| 20260830201238 | 95 | 181 | 4.0 | 6.0 | 0.00 | 0.00 | 0.00 | 63 | 1009.6 |
| 20260830200733 | 95 | 225 | 2.0 | 2.0 | 0.00 | 0.00 | 0.00 | 66 | 1009.6 |
| 20260830200232 | 95 | 177 | 3.0 | 4.0 | 0.00 | 0.00 | 0.00 | 64 | 1009.5 |
| 20260830195728 | 96 | 28 | 5.0 | 7.0 | 0.00 | 0.00 | 0.00 | 65 | 1009.5 |
| 20260830195226 | 95 | 277 | 2.0 | 4.0 | 0.00 | 0.00 | 0.00 | 62 | 1009.6 |
| 20260830194724 | 96 | 201 | 3.0 | 4.0 | 0.00 | 0.00 | 0.00 | 62 | 1009.9 |
| 20260830194219 | 95 | 217 | 3.0 | 4.0 | 0.00 | 0.00 | 0.00 | 63 | 1009.9 |
| 20260830193714 | 96 | 201 | 2.0 | 4.0 | 0.00 | 0.00 | 0.00 | 62 | 1009.8 |
| 20260830193209 | 95 | 210 | 2.0 | 3.0 | 0.00 | 0.00 | 0.00 | 64 | 1009.9 |
| 20260830192704 | 94 | 22 | 2.0 | 6.0 | 0.00 | 0.00 | 0.00 | 66 | 1010.0 |
| 20260830192159 | 95 | 328 | 4.0 | 6.0 | 0.00 | 0.00 | 0.00 | 64 | 1009.9 |
| 20260830191655 | 96 | 250 | 1.0 | 1.0 | 0.00 | 0.00 | 0.00 | 62 | 1010.1 |
| 20260830191149 | 96 | 225 | 1.0 | 2.0 | 0.00 | 0.00 | 0.00 | 62 | 1010.1 |
| 20260830190645 | 96 | 231 | 1.0 | 1.0 | 0.00 | 0.00 | 0.00 | 60 | 1010.2 |
| 20260830190140 | 96 | 209 | 2.0 | 2.0 | 0.00 | 0.00 | 0.00 | 63 | 1010.4 |
| 20260830185638 | 96 | 234 | 2.0 | 3.0 | 0.00 | 0.00 | 0.00 | 63 | 1010.4 |
| 20260830185134 | 96 | 353 | 2.0 | 3.0 | 0.00 | 0.00 | 0.00 | 66 | 1010.2 |
| 20260830184632 | 95 | 262 | 4.0 | 7.0 | 0.00 | 0.00 | 0.00 | 64 | 1010.7 |
| 20260830184127 | 95 | 197 | 4.0 | 6.0 | 0.00 | 0.00 | 0.00 | 61 | 1010.7 |
| 20260830183622 | 95 | 263 | 1.0 | 2.0 | 0.00 | 0.00 | 0.00 | 63 | 1010.8 |
| 20260830183118 | 95 | 220 | 5.0 | 8.0 | 0.00 | 0.00 | 0.00 | 63 | 1010.7 |
| 20260830182613 | 95 | 189 | 1.0 | 1.0 | 0.00 | 0.00 | 0.00 | 64 | 1010.7 |
| 20260830182109 | 96 | 173 | 3.0 | 4.0 | 0.00 | 0.00 | 0.00 | 60 | 1010.8 |
| 20260830181605 | 96 | 200 | 2.0 | 2.0 | 0.00 | 0.00 | 0.00 | 60 | 1010.6 |
| 20260830181104 | 96 | 189 | 2.0 | 2.0 | 0.00 | 0.00 | 0.00 | 61 | 1010.9 |
| 20260830180604 | 96 | 155 | 2.0 | 3.0 | 0.00 | 0.00 | 0.00 | 62 | 1010.7 |
| 20260830180058 | 95 | 233 | 2.0 | 4.0 | 0.00 | 0.00 | 0.00 | 62 | 1010.7 |
| 20260830175557 | 95 | 222 | 0.0 | 0.0 | 0.00 | 0.00 | 0.00 | 62 | 1010.8 |
| 20260830175053 | 97 | 182 | 2.0 | 3.0 | 0.00 | 0.00 | 0.00 | 60 | 1010.9 |
| 20260830174548 | 98 | 218 | 1.0 | 2.0 | 0.00 | 0.00 | 0.00 | 59 | 1011.1 |
| 20260830174043 | 96 | 218 | 1.0 | 2.0 | 0.00 | 0.00 | 0.00 | 62 | 1011.0 |
| 20260830173538 | 95 | 289 | 1.0 | 2.0 | 0.00 | 0.00 | 0.00 | 62 | 1011.2 |
| 20260830173033 | 93 | 191 | 2.0 | 3.0 | 0.00 | 0.00 | 0.00 | 64 | 1011.1 |
| 20260830172525 | 95 | 207 | 1.0 | 2.0 | 0.00 | 0.00 | 0.00 | 66 | 1011.3 |
| 20260830172020 | 95 | 199 | 2.0 | 3.0 | 0.00 | 0.00 | 0.00 | 65 | 1011.4 |
| 20260830171515 | 95 | 205 | 3.0 | 4.0 | 0.00 | 0.00 | 0.00 | 64 | 1011.2 |
| 20260830171010 | 93 | 190 | 4.0 | 7.0 | 0.00 | 0.00 | 0.00 | 67 | 1011.3 |
| 20260830170509 | 95 | 219 | 3.0 | 4.0 | 0.00 | 0.00 | 0.00 | 65 | 1011.3 |
| 20260830170008 | 94 | 244 | 1.0 | 2.0 | 0.00 | 0.00 | 0.00 | 65 | 1011.4 |
| 20260830165504 | 94 | 227 | 2.0 | 3.0 | 0.00 | 0.00 | 0.00 | 66 | 1011.4 |
| 20260830164959 | 94 | 210 | 2.0 | 2.0 | 0.00 | 0.00 | 0.00 | 67 | 1011.6 |
| 20260830164455 | 94 | 203 | 1.0 | 2.0 | 0.00 | 0.00 | 0.00 | 68 | 1011.5 |
| 20260830163951 | 93 | 221 | 2.0 | 2.0 | 0.00 | 0.00 | 0.00 | 69 | 1011.6 |
| 20260830163448 | 92 | 225 | 2.0 | 2.0 | 0.00 | 0.00 | 0.00 | 70 | 1011.5 |
| 20260830162947 | 94 | 175 | 4.0 | 4.0 | 0.00 | 0.00 | 0.00 | 68 | 1011.6 |
| 20260830162443 | 94 | 225 | 1.0 | 2.0 | 0.00 | 0.00 | 0.00 | 69 | 1011.6 |
| 20260830161937 | 95 | 77 | 1.0 | 2.0 | 0.00 | 0.00 | 0.00 | 66 | 1011.6 |
| 20260830161431 | 92 | 218 | 1.0 | 2.0 | 0.00 | 0.00 | 0.00 | 72 | 1011.3 |
| 20260830160926 | 92 | 191 | 3.0 | 3.0 | 0.00 | 0.00 | 0.00 | 72 | 1011.5 |
| 20260830160423 | 93 | 223 | 2.0 | 2.0 | 0.00 | 0.00 | 0.00 | 71 | 1011.6 |
| 20260830155918 | 93 | 222 | 1.0 | 1.0 | 0.00 | 0.00 | 0.00 | 71 | 1011.4 |
| 20260830155414 | 92 | 254 | 1.0 | 1.0 | 0.00 | 0.00 | 0.00 | 72 | 1011.7 |
| 20260830154909 | 93 | 226 | 1.0 | 2.0 | 0.00 | 0.00 | 0.00 | 70 | 1011.6 |
| 20260830154405 | 95 | 218 | 1.0 | 2.0 | 0.00 | 0.00 | 0.00 | 69 | 1011.6 |
| 20260830153901 | 92 | 212 | 1.0 | 1.0 | 0.00 | 0.00 | 0.00 | 72 | 1011.4 |
| 20260830153356 | 91 | 221 | 1.0 | 2.0 | 0.00 | 0.00 | 0.00 | 74 | 1011.7 |
| 20260830152855 | 91 | 193 | 1.0 | 2.0 | 0.00 | 0.00 | 0.00 | 75 | 1011.5 |
| 20260830152350 | 89 | 198 | 1.0 | 2.0 | 0.00 | 0.00 | 0.00 | 77 | 1011.3 |
| 20260830151844 | 89 | 140 | 2.0 | 2.0 | 0.00 | 0.00 | 0.00 | 76 | 1011.4 |
| 20260830151344 | 88 | 165 | 3.0 | 4.0 | 0.00 | 0.00 | 0.00 | 78 | 1011.6 |
| 20260830150839 | 89 | 223 | 3.0 | 4.0 | 0.00 | 0.00 | 0.00 | 77 | 1011.3 |
| 20260830150338 | 89 | 221 | 0.0 | 0.0 | 0.00 | 0.00 | 0.00 | 77 | 1011.3 |
| 20260830145833 | 89 | 201 | 1.0 | 2.0 | 0.00 | 0.00 | 0.00 | 77 | 1011.4 |
| 20260830145328 | 89 | 209 | 1.0 | 1.0 | 0.00 | 0.00 | 0.00 | 77 | 1011.4 |
| 20260830144823 | 89 | 189 | 0.0 | 1.0 | 0.00 | 0.00 | 0.00 | 76 | 1011.2 |
| 20260830144319 | 89 | 202 | 1.0 | 1.0 | 0.00 | 0.00 | 0.00 | 78 | 1011.3 |
| 20260830143815 | 90 | 188 | 2.0 | 3.0 | 0.00 | 0.00 | 0.00 | 77 | 1011.3 |
| 20260830143315 | 90 | 220 | 2.0 | 3.0 | 0.00 | 0.00 | 0.00 | 77 | 1011.4 |
| 20260830142809 | 89 | 205 | 0.0 | 0.0 | 0.00 | 0.00 | 0.00 | 79 | 1011.2 |
| 20260830142306 | 88 | 219 | 0.0 | 0.0 | 0.00 | 0.00 | 0.00 | 81 | 1011.1 |
| 20260830141759 | 87 | 204 | 1.0 | 1.0 | 0.00 | 0.00 | 0.00 | 81 | 1011.3 |
| 20260830141254 | 87 | 156 | 2.0 | 3.0 | 0.00 | 0.00 | 0.00 | 81 | 1011.1 |
| 20260830140749 | 87 | 205 | 1.0 | 1.0 | 0.00 | 0.00 | 0.00 | 81 | 1010.9 |
| 20260830140248 | 87 | 178 | 2.0 | 3.0 | 0.00 | 0.00 | 0.00 | 81 | 1011.0 |
| 20260830135743 | 86 | 195 | 3.0 | 4.0 | 0.00 | 0.00 | 0.00 | 83 | 1010.9 |
| 20260830135239 | 86 | 211 | 2.0 | 2.0 | 0.00 | 0.00 | 0.00 | 85 | 1010.8 |
| 20260830134735 | 86 | 130 | 2.0 | 4.0 | 0.00 | 0.00 | 0.00 | 85 | 1010.8 |
| 20260830134230 | 86 | 211 | 2.0 | 2.0 | 0.00 | 0.00 | 0.00 | 86 | 1010.8 |
| 20260830133725 | 86 | 177 | 2.0 | 2.0 | 0.00 | 0.00 | 0.00 | 87 | 1010.8 |
| 20260830133221 | 86 | 205 | 1.0 | 1.0 | 0.00 | 0.00 | 0.00 | 88 | 1010.8 |
| 20260830132716 | 85 | 182 | 0.0 | 1.0 | 0.00 | 0.00 | 0.00 | 90 | 1010.9 |
| 20260830132212 | 85 | 215 | 0.0 | 0.0 | 0.00 | 0.00 | 0.00 | 91 | 1010.8 |
| 20260830131711 | 84 | 205 | 0.0 | 0.0 | 0.00 | 0.00 | 0.00 | 92 | 1010.7 |
| 20260830131206 | 83 | 199 | 0.0 | 0.0 | 0.00 | 0.00 | 0.00 | 93 | 1010.7 |
| 20260830130700 | 83 | 190 | 1.0 | 1.0 | 0.00 | 0.00 | 0.00 | 94 | 1010.6 |
| 20260830130154 | 82 | 198 | 0.0 | 0.0 | 0.00 | 0.00 | 0.00 | 95 | 1010.6 |
| 20260830125649 | 82 | 212 | 0.0 | 0.0 | 0.00 | 0.00 | 0.00 | 95 | 1010.7 |
| 20260830125144 | 82 | 215 | 0.0 | 0.0 | 0.00 | 0.00 | 0.00 | 96 | 1010.5 |
| 20260830124642 | 82 | 213 | 0.0 | 0.0 | 0.00 | 0.00 | 0.00 | 96 | 1010.6 |
| 20260830124138 | 81 | 214 | 0.0 | 0.0 | 0.00 | 0.00 | 0.00 | 96 | 1010.5 |
| 20260830123634 | 81 | 215 | 0.0 | 0.0 | 0.00 | 0.00 | 0.00 | 96 | 1010.4 |
| 20260830123130 | 81 | 223 | 0.0 | 0.0 | 0.00 | 0.00 | 0.00 | 96 | 1010.4 |
| 20260830122627 | 81 | 207 | 0.0 | 0.0 | 0.00 | 0.00 | 0.00 | 96 | 1010.6 |
| 20260830122122 | 81 | 218 | 0.0 | 0.0 | 0.00 | 0.00 | 0.00 | 96 | 1010.4 |
| 20260830121618 | 81 | 220 | 0.0 | 0.0 | 0.00 | 0.00 | 0.00 | 96 | 1010.2 |
| 20260830121117 | 81 | 222 | 0.0 | 0.0 | 0.00 | 0.00 | 0.00 | 96 | 1010.4 |
| 20260830120612 | 81 | 211 | 0.0 | 0.0 | 0.00 | 0.00 | 0.00 | 96 | 1010.4 |
| 20260830120108 | 81 | 218 | 0.0 | 0.0 | 0.00 | 0.00 | 0.00 | 96 | 1010.2 |
| 20260830115604 | 81 | 219 | 0.0 | 0.0 | 0.00 | 0.00 | 0.00 | 96 | 1010.1 |
| 20260830115104 | 81 | 221 | 0.0 | 0.0 | 0.00 | 0.00 | 0.00 | 96 | 1010.1 |
| 20260830114601 | 81 | 214 | 0.0 | 0.0 | 0.00 | 0.00 | 0.00 | 96 | 1010.2 |
| 20260830114100 | 81 | 226 | 0.0 | 0.0 | 0.00 | 0.00 | 0.00 | 96 | 1010.0 |
| 20260830113556 | 81 | 218 | 0.0 | 0.0 | 0.00 | 0.00 | 0.00 | 96 | 1010.0 |
| 20260830113051 | 81 | 223 | 0.0 | 0.0 | 0.00 | 0.00 | 0.00 | 96 | 1010.1 |
| 20260830112547 | 81 | 223 | 0.0 | 0.0 | 0.00 | 0.00 | 0.00 | 95 | 1010.1 |
| 20260830112043 | 81 | 222 | 0.0 | 0.0 | 0.00 | 0.00 | 0.00 | 95 | 1010.1 |
| 20260830111539 | 81 | 219 | 0.0 | 0.0 | 0.00 | 0.00 | 0.00 | 95 | 1010.1 |
| 20260830111036 | 81 | 218 | 0.0 | 0.0 | 0.00 | 0.00 | 0.00 | 95 | 1010.1 |
| 20260830110535 | 81 | 224 | 0.0 | 0.0 | 0.00 | 0.00 | 0.00 | 95 | 1010.2 |
| 20260830110031 | 81 | 218 | 0.0 | 0.0 | 0.00 | 0.00 | 0.00 | 95 | 1010.0 |
| 20260830105525 | 82 | 217 | 0.0 | 0.0 | 0.00 | 0.00 | 0.00 | 94 | 1010.1 |
| 20260830105021 | 82 | 222 | 0.0 | 0.0 | 0.00 | 0.00 | 0.00 | 94 | 1010.1 |
| 20260830104518 | 82 | 214 | 0.0 | 0.0 | 0.00 | 0.00 | 0.00 | 94 | 1010.2 |
| 20260830104013 | 82 | 217 | 0.0 | 0.0 | 0.00 | 0.00 | 0.00 | 94 | 1010.0 |
| 20260830103508 | 82 | 216 | 0.0 | 0.0 | 0.00 | 0.00 | 0.00 | 94 | 1010.1 |
| 20260830103007 | 82 | 225 | 0.0 | 0.0 | 0.00 | 0.00 | 0.00 | 94 | 1010.1 |
| 20260830102502 | 82 | 203 | 2.0 | 3.0 | 0.00 | 0.00 | 0.00 | 94 | 1010.2 |
| 20260830101958 | 82 | 227 | 0.0 | 0.0 | 0.00 | 0.00 | 0.00 | 94 | 1010.1 |
| 20260830101453 | 82 | 217 | 0.0 | 0.0 | 0.00 | 0.00 | 0.00 | 94 | 1010.3 |
| 20260830100952 | 82 | 218 | 0.0 | 0.0 | 0.00 | 0.00 | 0.00 | 94 | 1010.2 |
| 20260830100447 | 82 | 217 | 0.0 | 0.0 | 0.00 | 0.00 | 0.00 | 93 | 1010.2 |
| 20260830095945 | 82 | 206 | 0.0 | 0.0 | 0.00 | 0.00 | 0.00 | 93 | 1010.3 |
| 20260830095442 | 82 | 182 | 1.0 | 2.0 | 0.00 | 0.00 | 0.00 | 93 | 1010.2 |
| 20260830094937 | 82 | 223 | 0.0 | 1.0 | 0.00 | 0.00 | 0.00 | 93 | 1010.1 |
| 20260830094433 | 82 | 213 | 0.0 | 0.0 | 0.00 | 0.00 | 0.00 | 93 | 1010.3 |
| 20260830093929 | 82 | 207 | 0.0 | 0.0 | 0.00 | 0.00 | 0.00 | 93 | 1010.2 |
| 20260830093424 | 82 | 204 | 0.0 | 1.0 | 0.00 | 0.00 | 0.00 | 93 | 1010.2 |
| 20260830092919 | 82 | 214 | 0.0 | 0.0 | 0.00 | 0.00 | 0.00 | 93 | 1010.3 |
| 20260830092415 | 82 | 214 | 0.0 | 0.0 | 0.00 | 0.00 | 0.00 | 93 | 1010.1 |
| 20260830091912 | 82 | 147 | 1.0 | 3.0 | 0.00 | 0.00 | 0.00 | 93 | 1010.2 |
| 20260830091411 | 82 | 216 | 0.0 | 0.0 | 0.00 | 0.00 | 0.00 | 93 | 1010.2 |
| 20260830090910 | 82 | 188 | 2.0 | 3.0 | 0.00 | 0.00 | 0.00 | 93 | 1010.0 |
| 20260830090406 | 82 | 140 | 1.0 | 2.0 | 0.00 | 0.00 | 0.00 | 93 | 1010.2 |
| 20260830085905 | 82 | 214 | 0.0 | 0.0 | 0.00 | 0.00 | 0.00 | 93 | 1010.3 |
| 20260830085355 | 82 | 192 | 0.0 | 0.0 | 0.00 | 0.00 | 0.00 | 93 | 1010.5 |
| 20260830084851 | 82 | 205 | 0.0 | 0.0 | 0.00 | 0.00 | 0.00 | 93 | 1010.2 |
| 20260830084346 | 82 | 174 | 0.0 | 0.0 | 0.00 | 0.00 | 0.00 | 93 | 1010.4 |
| 20260830083841 | 82 | 206 | 0.0 | 0.0 | 0.00 | 0.00 | 0.00 | 93 | 1010.3 |
| 20260830083337 | 82 | 199 | 0.0 | 0.0 | 0.00 | 0.00 | 0.00 | 93 | 1010.4 |
| 20260830082836 | 82 | 218 | 0.0 | 0.0 | 0.00 | 0.00 | 0.00 | 94 | 1010.4 |
| 20260830082331 | 82 | 221 | 0.0 | 0.0 | 0.00 | 0.00 | 0.00 | 94 | 1010.4 |
| 20260830081826 | 82 | 209 | 0.0 | 0.0 | 0.00 | 0.00 | 0.00 | 93 | 1010.2 |
| 20260830081320 | 82 | 212 | 0.0 | 1.0 | 0.00 | 0.00 | 0.00 | 94 | 1010.3 |
| 20260830080815 | 82 | 214 | 0.0 | 0.0 | 0.00 | 0.00 | 0.00 | 94 | 1010.3 |
| 20260830080312 | 82 | 207 | 0.0 | 0.0 | 0.00 | 0.00 | 0.00 | 94 | 1010.3 |
| 20260830075811 | 82 | 215 | 0.0 | 0.0 | 0.00 | 0.00 | 0.00 | 93 | 1010.6 |
| 20260830075307 | 82 | 213 | 0.0 | 0.0 | 0.00 | 0.00 | 0.00 | 94 | 1010.2 |
| 20260830074807 | 82 | 214 | 0.0 | 0.0 | 0.00 | 0.00 | 0.00 | 94 | 1010.1 |
| 20260830074303 | 82 | 214 | 0.0 | 0.0 | 0.00 | 0.00 | 0.00 | 94 | 1010.5 |
| 20260830073758 | 82 | 212 | 0.0 | 0.0 | 0.00 | 0.00 | 0.00 | 94 | 1010.5 |
| 20260830073254 | 82 | 213 | 0.0 | 0.0 | 0.00 | 0.00 | 0.00 | 94 | 1010.5 |